Home   Weather   Traralgon   Past weeks

Flag for Australia Past Weather in Traralgon, Victoria, Australia — Yesterday and Last 2 Weeks

Now
51 °F

Cool.


Feels Like: 51 °F
Forecast: 52 / 63 °F
Wind: No wind

Location: Latrobe Valley Airport

Current Time: Aug 31, 2016 at 8:49:56 AM

Latest Report: Aug 31, 2016 at 8:00 AM


Visibility: N/A

Pressure: 29.92 "Hg

Humidity: 96%

Dew Point: 50 °F

Location of TraralgonLocation

Past Weather in Traralgon — Graph

°F

Traralgon Temperature Yesterday

Maximum temperature yesterday: 56 °F (at 2:00 PM)
Minimum temperature yesterday: 41 °F (at 3:00 AM)
Average temperature yesterday: 49 °F

High & Low Weather Summary for the Past Weeks

 TemperatureHumidityPressure
High69 °F (Aug 16, 3:00 PM)97% (Aug 16, 8:00 AM)30.29 "Hg (Aug 16, 8:00 AM)
Low33 °F (Aug 18, 6:00 AM)32% (Aug 16, 3:00 PM)29.67 "Hg (Aug 19, 12:00 PM)
Average49 °F78%30.03 "Hg
* Reported Aug 16 6:00 AM — Aug 31 6:00 AM, Traralgon, Weather by CustomWeather, © 2016

Note: Actual official high and low records may vary slightly from our data, if they occured in-between our weather recording intervals... More about our weather records

Advertising

Traralgon Weather History for the Previous 24 Hours

Scroll right to see more
 ConditionsComfort  
Time TempWeatherWind HumidityBarometerVisibility
6:00 AM
Wed, Aug 31
51 °FOvercast.1 mph96%29.89 "Hg4 mi
5:00 AM51 °FCool.No wind96%29.89 "HgN/A
3:00 AM51 °FOvercast.3 mph96%29.89 "Hg4 mi
2:00 AM51 °FCool.1 mph95%29.91 "HgN/A
12:00 AM51 °FOvercast.No wind94%29.93 "Hg4 mi
11:00 PM
Tue, Aug 30
52 °FCool.No wind93%29.95 "HgN/A
9:00 PM52 °FOvercast.5 mph87%29.97 "HgN/A
8:00 PM52 °FCool.3 mph87%29.99 "HgN/A
6:00 PM54 °FOvercast.7 mph77%30.00 "HgN/A
5:00 PM54 °FCool.7 mph79%30.02 "HgN/A
3:00 PM56 °FOvercast.7 mph74%30.06 "HgN/A
2:00 PM56 °FCool.7 mph79%30.06 "HgN/A
12:00 PM54 °FOvercast.3 mph77%30.13 "HgN/A
11:00 AM53 °FCool.6 mph78%30.14 "HgN/A
9:00 AM47 °FScattered clouds.6 mph90%30.17 "HgN/A
8:00 AM45 °FCool.3 mph92%30.18 "HgN/A
Weather by CustomWeather, © 2016

See weather overviewHow to use our weather pages